Regional Weather Roundup
Issued by NWS Boston, MA

Home | Current Version | Previous Version | Text Only | Print | Product List | Glossary On
Versions: 1 2 3 4 5 6 7 8 9 10 11 12 13 14 15 16 17 18 19 20 21 22 23 24 25 26 27 28 29 30 31 32 33 34 35 36 37 38 39 40 41 42 43 44 45 46 47 48 49 50
000
ASUS41 KBOX 301010
RWRBOX

REGIONAL WEATHER ROUNDUP
NATIONAL WEATHER SERVICE TAUNTON MA
600 AM EDT SAT AUG 30 2014

NOTE:  "FAIR" INDICATES FEW OR NO CLOUDS BELOW 12,000 FEET WITH NO
SIGNIFICANT WEATHER AND/OR OBSTRUCTIONS TO VISIBILITY.  THE FOLLOWING
OBSERVATION LOCATIONS DO NOT REPORT PRESENT WEATHER...PROVINCETOWN...
SMITHFIELD...BLOCK ISLAND...KEENE...AND OXFORD.

MAZALL-301100-
EASTERN MASSACHUSETTS

CITY           SKY/WX    TMP DP  RH WIND       PRES   REMARKS
BOSTON         CLEAR     58  55  90 S5        30.30R
BEVERLY        CLEAR     53  51  93 CALM      30.29R FOG
LAWRENCE       CLEAR     52  51  97 CALM      30.31S
BEDFORD        CLEAR     50  49  96 CALM      30.29R
BLUE HILL        N/A     55  54  96 S10       30.29S
NORWOOD        FOG       45  44  97 CALM      30.30S VSB 3/4
MARSHFIELD     CLEAR     50  50 100 W3        30.33R
PLYMOUTH       CLEAR     49  45  86 CALM      30.31R
TAUNTON        CLEAR     44  42  93 CALM      30.30R
NEW BEDFORD    PTCLDY    48  46  93 CALM      30.30R
$$

MAZALL-301100-
CAPE COD AND THE ISLANDS

CITY           SKY/WX    TMP DP  RH WIND       PRES   REMARKS
FALMOUTH       CLEAR     48  46  93 CALM      30.31R
HYANNIS        CLEAR     47  44  90 N3        30.30R
CHATHAM        CLEAR     51  48  89 CALM      30.33R
PROVINCETOWN   CLEAR     52  46  82 S3        30.32R
NANTUCKET      CLEAR     53  47  79 E8        30.31S
MARTHAS VNYRD  CLEAR     39  38  96 CALM      30.31R
$$

MAZALL-301100-
CENTRAL AND WESTERN MASSACHUSETTS

CITY           SKY/WX    TMP DP  RH WIND       PRES   REMARKS
WORCESTER      PTCLDY    54  53  97 SW8       30.30S
FITCHBURG      PTCLDY    52  49  89 CALM      30.31R
ORANGE         CLEAR     50  48  93 CALM      30.30R
SPRINGFIELD    CLEAR     50  50 100 NE2       30.29R
WESTFIELD      CLEAR     51  49  92 CALM      30.29R
NORTH ADAMS    CLEAR     53  51  93 E7        30.28R
PITTSFIELD     FOG       48  48 100 CALM      30.28S VSB 1/2
$$

RIZALL-301100-
RHODE ISLAND

CITY           SKY/WX    TMP DP  RH WIND       PRES   REMARKS
PROVIDENCE     PTCLDY    56  53  90 CALM      30.31R
NEWPORT        CLEAR     54  52  93 CALM      30.30R
BLOCK ISLAND   CLEAR     61  54  77 SE5       30.30R
SMITHFIELD     CLEAR     50  45  81 CALM      30.30S
WESTERLY       PTCLDY    51  50  96 CALM      30.31R
$$

CTZALL-301100-
CONNECTICUT

CITY           SKY/WX    TMP DP  RH WIND       PRES   REMARKS
BRADLEY INTL   PTCLDY    54  51  90 CALM      30.29R
HARTFORD       CLEAR     56  54  93 CALM      30.29R
BRIDGEPORT     CLEAR     67  60  78 SE8       30.28R
DANBURY        CLEAR     52  50  93 CALM      30.30R
GROTON         CLEAR     53  53 100 N3        30.29R
NEW HAVEN      PTCLDY    66  58  75 S7        30.29R
CHESTER        FAIR      55  54  94 CALM      30.31R
MERIDEN        CLEAR     52  49  89 CALM      30.29R
WILLIMANTIC    FOG       52  51  97 CALM      30.31R VSB 1/2
OXFORD         CLEAR     54  48  82 CALM      30.30S
$$

MEZ002-015-021-024-NHZ003-005-008-011-012-014-VTZ005-008-301100-
NORTHERN NEW ENGLAND

CITY           SKY/WX    TMP DP  RH WIND       PRES   REMARKS
PORTLAND ME    MOCLDY    53  51  93 SW3       30.29R
BANGOR ME      MOCLDY    53  49  86 S5        30.27S
CONCORD NH     PTCLDY    52  51  97 CALM      30.29R
MANCHESTER NH  MOCLDY    56  53  90 CALM      30.27S
NASHUA NH      CLEAR     51  51 100 CALM      30.30S
PORTSMOUTH NH  MOCLDY    54  52  94 SW5       30.29R
JAFFREY NH     MOCLDY    50  49  96 CALM      30.30S
KEENE NH       CLEAR     50  43  76 CALM      30.30R
BURLINGTON VT  PTCLDY    64  54  69 S13G22    30.18S
MT. WASHINGTON FOG       43  43 100 SW37        N/A  VSB 1/16WCI  31
$$

NYZ052-076-301100-
EASTERN NEW YORK

CITY           SKY/WX    TMP DP  RH WIND       PRES   REMARKS
ALBANY         PTCLDY    57  53  86 S5        30.26R
NEW YORK CITY  MOCLDY    68  55  63 CALM      30.26S
$$

ANZALL-301100-
MARINE OBSERVATIONS

STATION/POSITION TIME  TEMP    WIND        PRES    VSBY  WAVE
                       AIR SEA DIR/SP/G                  HT/PER
                 (UTC) (F)     (DEG/KT/KT) (MB)    (MI)  (FT/S)
BOSTON BUOY      0950   62 66  200/  8/ 10 1026.3R         2/10
BUZZARDS BAY     0900          130/  8/  9 1026.3F
NANTUCKET SOUND  0950   62 69  120/  8/ 10 1026.1R         1/ 6
MASS BAY-STELLWA 0904   64 64  210/ 10/ 12   N/A    1 7/8  2/ 6
ISLE OF SHOALS   1000   62     210/ 13/ 15 1025.1R
S OF BLOCK IS    0908      65                N/A           3/ 9
$$

......................KEY.........................
  SKY/WX - SKY CONDITION/PRESENT WEATHER
  TMP    - TEMPERATURE IN FAHRENHEIT
  DWPT   - DEWPOINT IN FAHRENHEIT
  RH     - RELATIVE HUMIDITY IN PERCENT
  WIND   - DIRECTION AND SPEED IN MPH
  PRES   - MEAN SEA LEVEL PRESSURE IN INCHES OF HG
  WCI    - WIND CHILL INDEX
  VSB    - VISIBILITY IN MILES
  HX     - HEAT INDEX
  TC     - TEMPERATURE IN CELSIUS
  VRB    - VARIABLE WIND DIRECTION
  N/A    - NOT AVAILABLE


USA.gov is the U.S. government's official web portal to all federal, state and local government web resources and services.